• In France
  • List of Countries
  • For 7 days
  • Water Temperature
  • Satellite Maps
  • Weather Map
  • Weather Widgets
  • user-avatar
    Login

    Hourly Weather Madinat 'Isa

    Today, 23 September, Saturday

    Time Temperature Precipitation Wind Pressure Humidity
    00:00 +34°C° 0 mm 1 mps 753 mmHg 47%
    01:00 +33°C° 0 mm 1 mps 753 mmHg 47%
    02:00 +33°C° 0 mm 1 mps 753 mmHg 47%
    03:00 +32°C° 0 mm 2 mps 753 mmHg 47%
    04:00 +32°C° 0 mm 2 mps 753 mmHg 47%
    05:00 +34°C° 0 mm 2 mps 753 mmHg 47%
    06:00 +34°C° 0 mm 2 mps 754 mmHg 47%
    07:00 +35°C° 0 mm 2 mps 754 mmHg 43%
    08:00 +37°C° 0 mm 2 mps 754 mmHg 39%
    09:00 +38°C° 0 mm 2 mps 755 mmHg 34%
    10:00 +39°C° 0 mm 2 mps 755 mmHg 32%
    11:00 +40°C° 0 mm 2 mps 755 mmHg 29%
    12:00 +42°C° 0 mm 3 mps 754 mmHg 27%
    13:00 +42°C° 0 mm 3 mps 754 mmHg 28%
    14:00 +42°C° 0 mm 3 mps 754 mmHg 29%
    15:00 +42°C° 0 mm 4 mps 754 mmHg 30%
    16:00 +40°C° 0 mm 4 mps 754 mmHg 36%
    17:00 +38°C° 0 mm 3 mps 754 mmHg 42%
    18:00 +37°C° 0 mm 3 mps 754 mmHg 48%
    19:00 +36°C° 0 mm 3 mps 754 mmHg 51%
    20:00 +36°C° 0 mm 3 mps 754 mmHg 53%
    21:00 +35°C° 0 mm 2 mps 755 mmHg 55%
    22:00 +35°C° 0 mm 2 mps 755 mmHg 56%
    23:00 +33°C° 0 mm 1 mps 754 mmHg 57%

    Tomorrow, 24 September, Sunday

    Time Temperature Precipitation Wind Pressure Humidity
    00:00 +33°C° 0 mm 1 mps 754 mmHg 58%
    01:00 +32°C° 0 mm 1 mps 754 mmHg 58%
    02:00 +32°C° 0 mm 1 mps 754 mmHg 59%
    03:00 +32°C° 0 mm 1 mps 754 mmHg 59%
    04:00 +32°C° 0 mm 1 mps 754 mmHg 58%
    05:00 +32°C° 0 mm 1 mps 755 mmHg 57%
    06:00 +32°C° 0 mm 1 mps 755 mmHg 56%
    07:00 +33°C° 0 mm 1 mps 755 mmHg 51%
    08:00 +36°C° 0 mm 2 mps 756 mmHg 46%
    09:00 +37°C° 0 mm 2 mps 756 mmHg 41%
    10:00 +38°C° 0 mm 2 mps 756 mmHg 38%
    11:00 +39°C° 0 mm 2 mps 755 mmHg 35%
    12:00 +40°C° 0 mm 2 mps 755 mmHg 31%
    13:00 +40°C° 0 mm 2 mps 755 mmHg 31%
    14:00 +40°C° 0 mm 2 mps 754 mmHg 30%
    15:00 +40°C° 0 mm 3 mps 754 mmHg 29%
    16:00 +39°C° 0 mm 3 mps 754 mmHg 35%
    17:00 +38°C° 0 mm 3 mps 754 mmHg 40%
    18:00 +37°C° 0 mm 4 mps 754 mmHg 45%
    19:00 +36°C° 0 mm 3 mps 754 mmHg 48%
    20:00 +36°C° 0 mm 3 mps 755 mmHg 51%
    21:00 +35°C° 0 mm 3 mps 755 mmHg 55%
    22:00 +35°C° 0 mm 2 mps 755 mmHg 56%
    23:00 +34°C° 0 mm 2 mps 755 mmHg 57%

    Day after tomorrow, 25 September, Monday

    Time Temperature Precipitation Wind Pressure Humidity
    00:00 +33°C° 0 mm 1 mps 755 mmHg 58%
    01:00 +32°C° 0 mm 1 mps 754 mmHg 60%
    02:00 +32°C° 0 mm 1 mps 754 mmHg 61%
    03:00 +31°C° 0 mm 1 mps 754 mmHg 63%
    04:00 +31°C° 0 mm 1 mps 754 mmHg 63%
    05:00 +31°C° 0 mm 1 mps 755 mmHg 63%
    06:00 +31°C° 0 mm 1 mps 755 mmHg 63%
    07:00 +33°C° 0 mm 1 mps 755 mmHg 57%
    08:00 +34°C° 0 mm 1 mps 755 mmHg 51%
    09:00 +36°C° 0 mm 1 mps 756 mmHg 45%
    10:00 +37°C° 0 mm 1 mps 755 mmHg 41%
    11:00 +37°C° 0 mm 1 mps 755 mmHg 37%
    12:00 +39°C° 0 mm 1 mps 755 mmHg 33%
    13:00 +40°C° 0 mm 2 mps 754 mmHg 32%
    14:00 +40°C° 0 mm 2 mps 754 mmHg 30%
    15:00 +40°C° 0 mm 3 mps 753 mmHg 28%
    16:00 +39°C° 0 mm 3 mps 754 mmHg 33%
    17:00 +38°C° 0 mm 3 mps 754 mmHg 37%
    18:00 +37°C° 0 mm 3 mps 754 mmHg 42%
    19:00 +36°C° 0 mm 3 mps 754 mmHg 45%
    20:00 +36°C° 0 mm 3 mps 755 mmHg 48%
    21:00 +35°C° 0 mm 2 mps 755 mmHg 51%
    22:00 +34°C° 0 mm 2 mps 755 mmHg 52%
    23:00 +33°C° 0 mm 1 mps 755 mmHg 54%

    26 September, Tuesday

    Time Temperature Precipitation Wind Pressure Humidity
    00:00 +32°C° 0 mm 1 mps 754 mmHg 55%
    01:00 +32°C° 0 mm 1 mps 754 mmHg 54%
    02:00 +32°C° 0 mm 1 mps 754 mmHg 54%
    03:00 +32°C° 0 mm 1 mps 754 mmHg 54%
    04:00 +32°C° 0 mm 1 mps 754 mmHg 53%
    05:00 +31°C° 0 mm 1 mps 754 mmHg 53%
    06:00 +31°C° 0 mm 2 mps 754 mmHg 53%
    07:00 +34°C° 0 mm 2 mps 755 mmHg 47%
    08:00 +36°C° 0 mm 2 mps 755 mmHg 42%
    09:00 +37°C° 0 mm 3 mps 755 mmHg 37%
    10:00 +38°C° 0 mm 3 mps 755 mmHg 33%
    11:00 +39°C° 0 mm 3 mps 755 mmHg 29%
    12:00 +40°C° 0 mm 3 mps 755 mmHg 25%
    13:00 +42°C° 0 mm 3 mps 754 mmHg 25%
    14:00 +42°C° 0 mm 3 mps 754 mmHg 24%
    15:00 +42°C° 0 mm 3 mps 753 mmHg 23%
    16:00 +40°C° 0 mm 3 mps 753 mmHg 27%
    17:00 +39°C° 0 mm 2 mps 754 mmHg 31%
    18:00 +37°C° 0 mm 2 mps 754 mmHg 36%
    19:00 +37°C° 0 mm 2 mps 754 mmHg 38%
    20:00 +36°C° 0 mm 2 mps 755 mmHg 41%
    21:00 +36°C° 0 mm 2 mps 755 mmHg 43%
    22:00 +35°C° 0 mm 2 mps 755 mmHg 45%
    23:00 +35°C° 0 mm 2 mps 754 mmHg 46%

    27 September, Wednesday

    Time Temperature Precipitation Wind Pressure Humidity
    00:00 +34°C° 0 mm 2 mps 754 mmHg 47%
    01:00 +34°C° 0 mm 2 mps 754 mmHg 48%
    02:00 +32°C° 0 mm 1 mps 754 mmHg 50%
    03:00 +31°C° 0 mm 1 mps 754 mmHg 51%
    04:00 +31°C° 0 mm 1 mps 754 mmHg 50%
    05:00 +31°C° 0 mm 1 mps 755 mmHg 49%
    06:00 +31°C° 0 mm 1 mps 755 mmHg 48%
    07:00 +33°C° 0 mm 1 mps 756 mmHg 43%
    08:00 +35°C° 0 mm 1 mps 756 mmHg 39%
    09:00 +36°C° 0 mm 1 mps 756 mmHg 34%
    10:00 +37°C° 0 mm 1 mps 756 mmHg 31%
    11:00 +39°C° 0 mm 1 mps 756 mmHg 28%
    12:00 +40°C° 0 mm 1 mps 755 mmHg 26%
    13:00 +40°C° 0 mm 2 mps 755 mmHg 26%
    14:00 +40°C° 0 mm 3 mps 755 mmHg 26%
    15:00 +40°C° 0 mm 3 mps 754 mmHg 26%
    16:00 +39°C° 0 mm 3 mps 755 mmHg 31%
    17:00 +38°C° 0 mm 3 mps 755 mmHg 35%
    18:00 +37°C° 0 mm 3 mps 755 mmHg 40%
    19:00 +37°C° 0 mm 3 mps 755 mmHg 43%
    20:00 +36°C° 0 mm 3 mps 755 mmHg 46%
    21:00 +36°C° 0 mm 3 mps 756 mmHg 49%
    22:00 +35°C° 0 mm 3 mps 755 mmHg 51%
    23:00 +35°C° 0 mm 3 mps 755 mmHg 53%

    28 September, Thursday

    Time Temperature Precipitation Wind Pressure Humidity
    00:00 +35°C° 0 mm 3 mps 754 mmHg 55%
    01:00 +34°C° 0 mm 2 mps 754 mmHg 56%
    02:00 +33°C° 0 mm 1 mps 754 mmHg 56%
    03:00 +32°C° 0 mm 1 mps 754 mmHg 57%
    04:00 +32°C° 0 mm 1 mps 755 mmHg 56%
    05:00 +32°C° 0 mm 1 mps 755 mmHg 56%
    06:00 +31°C° 0 mm 1 mps 756 mmHg 55%
    07:00 +33°C° 0 mm 1 mps 756 mmHg 50%
    08:00 +36°C° 0 mm 2 mps 756 mmHg 46%
    09:00 +37°C° 0 mm 2 mps 756 mmHg 41%
    10:00 +38°C° 0 mm 2 mps 756 mmHg 38%
    11:00 +39°C° 0 mm 1 mps 756 mmHg 35%
    12:00 +40°C° 0 mm 1 mps 755 mmHg 32%
    13:00 +40°C° 0 mm 2 mps 755 mmHg 31%
    14:00 +40°C° 0 mm 2 mps 755 mmHg 29%
    15:00 +41°C° 0 mm 2 mps 754 mmHg 28%
    16:00 +40°C° 0 mm 2 mps 754 mmHg 31%
    17:00 +39°C° 0 mm 2 mps 754 mmHg 34%
    18:00 +37°C° 0 mm 2 mps 754 mmHg 37%
    19:00 +37°C° 0 mm 2 mps 755 mmHg 38%
    20:00 +36°C° 0 mm 2 mps 755 mmHg 39%
    21:00 +36°C° 0 mm 2 mps 755 mmHg 39%
    22:00 +35°C° 0 mm 2 mps 755 mmHg 42%
    23:00 +35°C° 0 mm 2 mps 754 mmHg 44%
    Show more